Lid_Strength_Index
5 3 2 1 1 0 0 0 0 0 -0 -1 -1 -1 -1 -1 -1 -0 1 -1 2 6 5 3 3 6 6 7 10 8 8 7 7 10 12 12 14 12 13 11 12 11 12 12 12 13 14 5 5 8 6 4 4 4
5 4 2 1 1 1 1 0 0 0 -0 -1 -1 -1 -1 -1 -1 -1 2 -1 -0 4 5 2 2 2 3 4 6 6 8 7 8 9 8 9 11 12 13 15 8 14 10 11 10 10 4 5 5 4 4 4 4 4
5 4 2 1 1 1 1 1 0 -0 -0 -0 -1 -1 -1 -1 -1 -1 1 -0 1 4 4 4 5 2 0 1 1 7 6 5 6 4 8 9 12 9 14 13 12 9 7 10 10 8 6 5 4 4 3 4 3 3
5 4 3 2 1 1 1 1 0 0 -0 -1 -1 -0 -1 -1 -1 -1 1 -0 1 4 8 6 1 3 0 1 1 2 3 3 4 4 7 9 11 7 10 10 11 10 9 10 10 7 6 5 4 4 4 3 3 3
5 4 3 2 1 1 1 1 1 0 -0 -1 -1 -1 -0 -1 -1 -1 -0 -0 -0 4 8 6 2 2 1 1 2 2 3 4 5 6 8 9 7 7 7 8 11 9 10 11 11 8 8 6 5 4 4 4 4 3
5 4 3 2 1 1 1 1 1 0 -0 -0 -1 -0 -0 -0 -1 1 4 -0 -1 -0 5 9 3 3 2 2 2 3 3 4 4 6 6 5 4 7 10 10 8 8 7 7 8 7 7 6 4 4 4 4 4 3
5 5 3 3 2 1 1 1 0 0 -0 -0 -0 -0 -0 -0 -0 3 4 1 1 -0 6 8 7 4 2 3 3 3 3 4 5 6 6 6 6 6 8 11 8 7 7 7 7 8 8 6 5 4 4 3 4 4
6 5 4 3 2 1 1 0 0 0 -0 -0 -0 -1 -0 -0 -0 2 -1 -1 -0 2 4 9 8 6 3 6 7 4 5 5 5 6 6 6 5 6 10 7 7 7 7 8 7 6 7 6 4 4 3 3 3 4
6 5 4 3 2 1 1 1 0 0 0 0 -0 -1 -0 1 2 1 -0 -1 -1 3 7 8 10 11 3 6 5 6 5 9 5 7 7 6 8 10 7 7 7 7 7 8 7 7 7 7 5 5 5 4 4 4
6 5 5 4 3 2 1 0 0 0 0 -0 0 3 4 2 -1 -1 2 4 4 4 4 7 5 9 6 7 8 8 7 9 10 7 5 8 8 6 5 4 4 4 5 7 8 8 8 7 6 5 5 5 4 4
6 6 5 4 3 2 1 0 0 1 1 1 3 4 1 -1 1 3 6 7 6 8 5 6 6 9 5 10 10 7 10 9 13 9 9 10 9 6 4 4 4 4 4 5 5 5 5 5 5 5 5 5 5 4
7 6 5 4 4 2 1 0 0 -0 1 2 2 0 1 3 4 7 8 6 8 9 6 7 7 6 6 5 9 9 11 10 13 8 11 12 9 7 6 5 4 3 3 4 4 5 5 5 5 5 5 5 4 3
7 6 5 5 4 2 1 1 0 0 0 0 3 4 5 5 11 11 12 10 11 7 6 7 8 7 6 6 10 10 12 13 9 12 12 11 8 6 6 5 4 3 3 3 4 5 4 4 4 4 4 4 3 3
7 6 6 5 4 3 2 1 0 -0 1 4 6 11 8 11 10 9 10 8 7 6 6 6 8 8 7 9 10 12 10 11 14 15 14 10 10 7 6 5 5 5 5 4 3 3 4 4 4 3 3 2 3 3
7 7 6 4 4 4 3 2 1 -1 2 5 5 11 9 6 6 5 4 5 4 4 5 6 6 6 9 10 10 11 12 14 13 14 11 11 10 9 8 7 6 6 5 5 4 5 4 3 3 3 2 2 2 2
7 6 5 5 5 4 3 1 -0 -0 2 4 5 8 6 6 6 5 5 5 4 4 4 5 8 9 11 11 12 13 13 14 13 12 10 7 8 8 8 8 7 6 6 5 4 4 4 4 4 3 2 3 3 2
7 7 6 6 5 5 3 1 1 3 4 5 6 4 5 5 6 5 4 4 3 4 7 7 11 11 8 11 13 11 12 12 10 8 6 5 5 6 6 5 6 6 7 5 4 5 4 3 4 4 5 4 4 3
8 7 7 6 5 4 1 1 2 4 6 5 6 5 4 4 4 4 3 3 4 5 5 8 6 10 12 13 12 10 9 7 6 6 6 5 5 4 4 5 5 5 6 6 5 6 5 4 5 4 4 4 4 3
8 7 7 6 5 5 3 3 2 6 5 4 4 3 3 3 3 3 3 2 2 3 4 6 8 9 9 7 7 6 6 6 6 5 5 4 3 4 4 4 4 4 4 5 5 5 5 5 4 4 4 3 4 3
7 7 6 5 5 4 5 4 1 5 6 4 3 4 4 4 3 3 3 3 3 4 6 8 7 7 6 5 4 4 4 4 4 5 5 4 3 3 3 4 4 4 4 4 4 5 4 4 4 4 4 4 5 5
8 5 5 4 3 3 4 5 5 3 4 5 3 4 4 3 4 4 4 3 5 5 6 5 5 4 3 2 3 3 3 3 4 4 4 5 3 3 3 3 3 3 4 4 4 5 5 5 4 3 4 5 5 4
7 5 6 4 5 5 5 4 4 3 4 4 4 4 5 6 6 5 3 5 6 5 4 4 3 3 4 4 3 2 2 2 2 3 4 4 4 4 3 3 3 4 4 4 4 5 5 5 4 3 4 4 4 4
6 5 5 5 8 8 9 4 5 5 7 6 5 6 6 6 5 3 5 5 5 3 2 3 2 2 3 3 3 2 2 2 3 3 3 3 2 3 3 3 2 3 4 3 3 4 4 7 5 4 3 4 3 4
7 7 8 8 8 10 7 7 5 6 6 7 7 8 7 6 4 5 7 6 4 3 3 3 3 3 4 4 4 3 3 2 3 3 2 3 3 3 2 3 3 2 2 2 3 3 3 2 5 3 3 4 4 4
12 11 10 12 8 9 10 10 9 8 9 7 8 8 7 4 7 7 7 5 4 4 3 3 3 3 4 4 3 4 2 2 3 4 2 2 3 3 3 2 2 2 1 2 3 3 3 3 3 2 3 3 3 4
14 11 11 10 9 10 9 11 10 10 8 9 7 6 6 7 9 9 6 5 4 3 3 3 3 4 3 3 4 3 2 1 2 3 2 2 2 3 3 3 3 3 1 1 2 3 3 3 3 3 3 3 6 3
14 13 9 7 7 7 8 8 7 8 9 9 7 7 7 10 9 6 4 3 3 2 2 2 2 3 3 2 2 1 1 1 2 2 1 1 1 1 2 3 3 2 1 2 1 2 2 3 3 3 3 3 3 2
12 11 13 10 9 7 9 9 10 10 9 6 6 9 9 9 7 4 3 2 2 2 2 2 1 2 2 1 1 1 1 1 1 1 1 1 1 0 0 0 0 6 1 2 1 1 1 2 2 2 3 3 4 4
12 10 10 12 11 9 9 10 9 7 6 6 7 8 6 4 3 3 2 2 2 2 3 3 3 2 2 1 1 1 1 2 3 4 4 5 5 4 2 1 1 0 0 1 8 5 2 3 3 2 3 4 4 4
12 10 11 11 11 11 8 7 7 5 5 5 4 4 4 3 2 1 2 2 3 3 3 3 3 3 3 3 2 2 2 1 2 3 4 4 4 3 2 2 2 2 1 1 1 1 6 3 4 3 5 6 6 8
9 9 11 10 10 8 7 5 5 5 5 5 4 4 5 4 2 1 1 1 1 2 2 3 3 2 2 3 3 3 3 2 2 2 3 3 2 2 2 2 2 1 1 1 2 2 2 4 6 7 7 7 8 7
9 10 10 10 9 6 6 7 6 6 6 6 5 4 4 4 5 3 1 1 2 2 5 3 2 2 1 1 1 2 8 3 3 4 5 5 4 3 3 2 2 2 2 3 3 4 6 6 7 7 8 8 8 8
8 8 8 8 6 7 6 6 7 6 5 6 5 5 4 5 6 3 1 0 1 2 2 2 2 2 2 2 2 3 5 5 7 9 9 9 9 8 3 3 2 2 3 3 4 5 6 6 7 7 8 8 9 9